Regional Weather Roundup
Issued by NWS

Home | Current Version | Previous Version | Text Only | Print | Product List | Glossary On
Versions: 1 2 3 4 5 6 7 8 9 10 11 12 13 14 15 16 17 18 19 20 21 22 23 24 25 26 27 28 29 30 31 32 33 34 35 36 37 38 39 40 41 42 43 44 45 46 47 48 49 50
000
ASPQ40 PGUM 310210
RWRPQ
WEATHER ROUNDUP FOR THE MARIANAS AND MICRONESIA
NATIONAL WEATHER SERVICE TIYAN GU
1200 PM CHST MON AUG 31 2015

GUZ001>004-310300-
MARIANA ISLANDS-

CITY           SKY/WX    TMP DP  RH WIND       PRES   REMARKS
GUAM AIRPORT   MOSUNNY   88  75  66 E7        29.86F HX  97
ANDERSEN AFB   SUNNY     84  75  74 SE8       29.87F HX  92
ROTA AIRPORT   MOSUNNY   84  79  84 E10       29.87F HX  96
TINIAN AP      MOSUNNY   86  77  74 E10       29.85F HX  97
SAIPAN AP      MOSUNNY   86  79  79 E10       29.85F HX  99

$$

PMZ161-310300-
REPUBLIC OF PALAU-

CITY           SKY/WX    TMP DP  RH WIND       PRES   REMARKS
KOROR AP       PTSUNNY   88  77  70 W12       29.83S HX 100
KOROR WSO      PTSUNNY   86  77  74 SW10      29.85F HX  97

$$

PMZ171>174-310300-
FEDERATED STATES OF MICRONESIA-

CITY           SKY/WX    TMP DP  RH WIND       PRES   REMARKS
YAP AIRPORT    LGT RAIN  79  77  94 VRB3      29.83F
CHUUK AP       MOSUNNY   86  79  79 VRB7      29.84F HX  99
POHNPEI AP     CLOUDY    88  77  70 NW6       29.80F HX 100
POHNPEI WSO    CLOUDY    84  79  84 W9        29.84F HX  96
KOSRAE AP      CLOUDY    86  79  79 NW10      29.77F HX  99

$$

PMZ181-310300-
REPUBLIC OF THE MARSHALL ISLANDS-

CITY           SKY/WX    TMP DP  RH WIND       PRES   REMARKS
KWAJALEIN AP   MOSUNNY   88  75  66 NE3       29.75F HX  97
MAJURO AP      LGT RAIN  82  77  83 S12       29.81  HX  91
MAJURO WSO     LGT RAIN  84  79  84 S6        29.74F HX  96

$$




USA.gov is the U.S. government's official web portal to all federal, state and local government web resources and services.